Location: Newark
(53.4333°N, 36.0000°E)
Time: 09:51:07
(UTC+00:00)

ISS - Pass Details

Date: 27 September 2019
Orbit: 411 x 421 km, 51.6° (Epoch: 15 October)

Event Time Altitude Azimuth Distance (km) Brightness Sun altitude
Rises 17:01:19 0° 261° (W) 2,344 1.2 -15.2°
Reaches altitude 10° 17:03:25 10° 258° (WSW) 1,482 -0.1 -15.5°
Maximum altitude 17:06:42 64° 177° (S) 461 -3.7 -16.0°
Enters shadow 17:07:36 42° 114° (ESE) 599 -3.5 -16.1°
